Starlink 32504

operational
NORAD ID: 62024 Int'l Des: 2024-213 Owner: SPXS Country: US Constellation: starlink
LEOCIRCULAR

About Starlink 32504

Description loading...

Live Position

Loading 3D Globe...

Upcoming Passes

Altitude History

Altitude vs Time

uPlot chart will show altitude changes over time

Two-Line Element Set

1 62024U 24213S 25352.94299617 .00033107 00000-0 11248-2 0 9992
2 62024 53.1577 183.0824 0001346 85.3556 274.7598 15.30202710 60791
Epoch: Dec 18, 2025 • Age: 35 hours

Current Status

Altitude 477.6 km
Velocity 7.63 km/s
Sub-Earth Point -8.82°S, 124.43°E
Launch Date Nov 18, 2024
Age 1 years
Type internet

Technical Details

Classification Payload
Mass 730.00 kg
Dry Mass 700.00 kg
Total Mass 730.00 kg
Length 0.30 m
Diameter 4.10 m
Span 29.00 m
Shape Box + pan
Manufacturer SPXS
Bus Type Starlink V2M
Phase Status In Orbit
Owner/State SPXS/US

Large Constellations

Loading constellations...